Location: Chippewa Lake
(41.0698°N, 81.9010°W)
Time: 22:07:35
(UTC+00:00)

Lacrosse 4 Rocket - Pass Details

Date: 09 May 2021
Orbit: 541 x 616 km, 68.0° (Epoch: 17 June)

Event Time Altitude Azimuth Distance (km) Brightness Sun altitude
Exits shadow 09:16:22 14° 229° (SW) 1,700 3.1 -10.6°
Maximum altitude 09:19:57 49° 301° (WNW) 793 1.9 -10.0°
Drops below altitude 10° 09:24:16 10° 18° (NNE) 1,966 5.0 -9.3°
Sets 09:26:35 0° 23° (NNE) 2,864 6.0 -8.9°
